Weather History for Imperial, CA

Change the Weather History Date:

Thursday, February 27, 2014

  Actual Average Record
Temperature  
Mean Temperature 72 °F -  
Max Temperature 81 °F 77 °F 96 °F (1986)
Min Temperature 63 °F 49 °F 31 °F (1971)
Cooling Degree Days 7    
Growing Degree Days 22 (Base 50)    
Moisture  
Dew Point 47 °F    
Average Humidity 44    
Maximum Humidity 58    
Minimum Humidity 27    
Precipitation  
Precipitation 0.00 in - - ()
Sea Level Pressure  
Sea Level Pressure 29.86 in    
Wind  
Wind Speed 15 mph (WSW)    
Max Wind Speed 24 mph    
Max Gust Speed 31 mph    
Visibility 10 miles    
Events      
Averages and records for this station are not official NWS values.
T = Trace of Precipitation, MM = Missing Value Source: NWS Daily Summary

Daily Weather History Graph

Daily Weather History Graph

Search for Another Location

Airport:

Trip Planner

Search our weather history database for the weather conditions in past years. The results will help you decide how hot, cold, wet, or windy it might be!

Date:

Astronomy

Feb. 27, 2014 Rise Set
Actual Time 6:12 AM PST 5:38 PM PST
Civil Twilight 5:47 AM PST 6:02 PM PST
Nautical Twilight 5:19 AM PST 6:31 PM PST
Astronomical Twilight 4:50 AM PST 7:00 PM PST
Moon 4:44 AM PST (2/27) 4:11 PM PST (2/27)
Length of Visible Light 12h 15m
Length of Day
11h 25m
Waning Crescent, 3% of the Moon is Illuminated
Feb 27
Waning Crescent
Mar 1
New
Mar 8
First Quarter
Mar 16
Full
Mar 23
Last Quarter

Hourly Weather History & Observations

Time (PST) Temp. Dew Point Humidity Pressure Visibility Wind Dir Wind Speed Gust Speed Precip Events Conditions
12:53 AM 63.0 °F 46.9 °F 56% 29.94 in 10.0 mi West 13.8 mph - N/A   Clear
1:53 AM 63.0 °F 48.0 °F 58% 29.93 in 10.0 mi WSW 11.5 mph - N/A   Clear
2:53 AM 64.0 °F 48.0 °F 56% 29.91 in 10.0 mi West 18.4 mph 26.5 mph N/A   Clear
3:53 AM 64.0 °F 48.0 °F 56% 29.91 in 10.0 mi WSW 19.6 mph - N/A   Clear
4:53 AM 64.0 °F 48.9 °F 58% 29.90 in 10.0 mi West 16.1 mph - N/A   Clear
5:53 AM 64.0 °F 48.9 °F 58% 29.90 in 10.0 mi WSW 12.7 mph - N/A   Clear
6:53 AM 66.0 °F 48.9 °F 54% 29.91 in 10.0 mi WSW 11.5 mph - N/A   Clear
7:53 AM 64.9 °F 48.0 °F 54% 29.92 in 10.0 mi South 5.8 mph - N/A   Clear
8:53 AM 69.1 °F 48.0 °F 47% 29.94 in 10.0 mi SSE 6.9 mph - N/A   Clear
9:53 AM 75.0 °F 51.1 °F 43% 29.93 in 10.0 mi WSW 17.3 mph 26.5 mph N/A   Clear
10:01 AM 75.9 °F 51.1 °F 42% 29.92 in 7.0 mi WSW 24.2 mph 31.1 mph N/A   Clear
10:53 AM 78.1 °F 52.0 °F 40% 29.91 in 10.0 mi SW 21.9 mph - N/A   Clear
11:53 AM 80.1 °F 50.0 °F 35% 29.88 in 10.0 mi WSW 24.2 mph 31.1 mph N/A   Clear
12:53 PM 81.0 °F 48.0 °F 31% 29.85 in 10.0 mi WSW 21.9 mph 31.1 mph N/A   Clear
1:53 PM 80.1 °F 46.0 °F 30% 29.81 in 10.0 mi WSW 21.9 mph 29.9 mph N/A   Clear
2:53 PM 81.0 °F 44.1 °F 27% 29.80 in 10.0 mi WSW 18.4 mph 24.2 mph N/A   Clear
3:53 PM 80.1 °F 43.0 °F 27% 29.78 in 10.0 mi SW 15.0 mph - N/A   Clear
4:53 PM 75.9 °F 44.1 °F 32% 29.78 in 10.0 mi WSW 13.8 mph - N/A   Clear
5:53 PM 73.0 °F 43.0 °F 34% 29.78 in 10.0 mi WSW 12.7 mph - N/A   Clear
6:53 PM 70.0 °F 46.0 °F 42% 29.79 in 10.0 mi West 10.4 mph - N/A   Clear
7:53 PM 68.0 °F 43.0 °F 40% 29.80 in 10.0 mi West 11.5 mph - N/A   Clear
8:53 PM 68.0 °F 45.0 °F 43% 29.81 in 10.0 mi West 5.8 mph - N/A   Clear
9:53 PM 68.0 °F 50.0 °F 52% 29.81 in 10.0 mi WNW 9.2 mph - N/A   Clear
10:53 PM 68.0 °F 46.0 °F 45% 29.82 in 10.0 mi NNW 6.9 mph - N/A   Clear
11:53 PM 68.0 °F 43.0 °F 40% 29.81 in 10.0 mi NNW 6.9 mph - N/A   Clear